GEOEYE 1 (33331 NORAD) Tracking and Keplerian Element Data

This shows tracking and keplerian element data for the satellite.

Feedback or suggestion? Click here.




ElementValue
Catalog33331
NameGEOEYE 1
Epoch Orbit87721
Epoch Day34.93482071
Epoch Year2025
RAAN110.2636
Inclination98.126
Eccentricity0.0004275
Argument of Perigee165.3403
Mean Anonmoly194.7924
Mean Motion14.64436979
Decay Rate1.279E-05
L11 33331U 08042A 25034.93482071 .00001279 00000+0 25073-3 0 9993
L22 33331 98.1260 110.2636 0004275 165.3403 194.7924 14.64436979877214



Live tracking and technical data element details for GEOEYE 1 (NORAD 33331). GEOEYE 1 can be tracked NOW for your location showing map with azimuth and elevation plus other details from your city location.







IsCatalogInMostPopularTable: catalog: 33331, numindb: 315
Update: records affected: 1



GetName: 33331 GEOEYE 1

Hit Count: updated at: Sat, 24 May 2025 16:20:26 GMT